Wetterstation-Oberesslingen
Wetterdaten: aktuell Sonntag, 29.01.2023 07:25
Datum Zeit Temperatur BodenT. -10 Temp+5cm Luftfeuchte Bod.Feuchte Luftdruck Regen Wind Richtung Richtung Sonnenschein ET Solar Taupunkt Windchill Windben
29.01.2023 07:25 -0,6 C 2,8 C -0,6 C 79 % 39 cb 1029,4 hPa 0,0 l/m 1,1 km/h (1 Bft) W-NW 292 0 min 0,000 mm 0 W/m -3,8 C -0,6 C 1,6 km/h (1 Bft)
29.01.2023 06:25 -0,3 C 2,8 C -0,6 C 79 % 39 cb 1029,8 hPa 0,0 l/m 1,1 km/h (1 Bft) W-NW 292 0 min 0,000 mm 0 W/m -3,5 C -0,3 C 1,6 km/h (1 Bft)
29.01.2023 05:25 -0,3 C 2,8 C -0,6 C 79 % 39 cb 1029,7 hPa 0,0 l/m 1,1 km/h (1 Bft) NW 315 0 min 0,000 mm 0 W/m -3,5 C -0,3 C 3,2 km/h (1 Bft)
29.01.2023 04:25 -0,2 C 2,8 C -0,6 C 79 % 39 cb 1029,5 hPa 0,0 l/m 2,7 km/h (1 Bft) NW 315 0 min 0,000 mm 0 W/m -3,4 C -0,2 C 3,2 km/h (1 Bft)
29.01.2023 03:25 0,0 C 2,8 C 0,0 C 80 % 39 cb 1029,7 hPa 0,0 l/m 2,7 km/h (1 Bft) NW 315 0 min 0,000 mm 0 W/m -3,0 C 0,0 C 4,8 km/h (1 Bft)
29.01.2023 02:25 0,1 C 2,8 C 0,0 C 80 % 39 cb 1029,6 hPa 0,0 l/m 1,1 km/h (1 Bft) W-NW 292 0 min 0,000 mm 0 W/m -2,9 C 0,1 C 3,2 km/h (1 Bft)
29.01.2023 01:25 0,2 C 2,8 C 0,0 C 80 % 39 cb 1029,8 hPa 0,0 l/m 2,7 km/h (1 Bft) W-NW 292 0 min 0,000 mm 0 W/m -2,8 C 0,2 C 3,2 km/h (1 Bft)
29.01.2023 00:25 0,4 C 2,8 C 0,6 C 81 % 39 cb 1029,9 hPa 0,0 l/m 2,7 km/h (1 Bft) NW 315 0 min 0,000 mm 0 W/m -2,5 C 0,4 C 6,4 km/h (2 Bft)
28.01.2023 23:25 0,6 C 2,8 C 0,6 C 81 % 39 cb 1029,9 hPa 0,0 l/m 2,7 km/h (1 Bft) W-NW 292 0 min 0,000 mm 0 W/m -2,3 C 0,6 C 6,4 km/h (2 Bft)
28.01.2023 22:25 0,8 C 2,8 C 0,6 C 81 % 39 cb 1029,8 hPa 0,0 l/m 2,7 km/h (1 Bft) N-NW 337 0 min 0,000 mm 0 W/m -2,1 C 0,8 C 4,8 km/h (1 Bft)
28.01.2023 21:25 0,8 C 2,8 C 0,6 C 82 % 39 cb 1029,3 hPa 0,0 l/m 1,1 km/h (1 Bft) N-NO 22 0 min 0,000 mm 0 W/m -1,9 C 0,8 C 1,6 km/h (1 Bft)
28.01.2023 20:25 0,2 C 2,8 C 0,0 C 84 % 38 cb 1029,2 hPa 0,0 l/m 1,1 km/h (1 Bft) N-NW 337 0 min 0,000 mm 0 W/m -2,2 C 0,2 C 3,2 km/h (1 Bft)
28.01.2023 19:25 1,0 C 2,8 C -0,6 C 80 % 38 cb 1028,9 hPa 0,0 l/m 1,1 km/h (1 Bft) NW 315 0 min 0,000 mm 0 W/m -2,1 C 1,0 C 3,2 km/h (1 Bft)
28.01.2023 18:25 1,4 C 2,8 C 1,1 C 80 % 38 cb 1028,5 hPa 0,0 l/m 1,1 km/h (1 Bft) N 360 0 min 0,000 mm 0 W/m -1,7 C 1,4 C 1,6 km/h (1 Bft)
28.01.2023 17:25 1,7 C 2,8 C 1,7 C 81 % 38 cb 1028,4 hPa 0,0 l/m 2,7 km/h (1 Bft) N-NW 337 0 min 0,000 mm 0 W/m -1,2 C 1,7 C 6,4 km/h (2 Bft)
28.01.2023 16:25 1,8 C 2,8 C 2,2 C 81 % 38 cb 1027,9 hPa 0,0 l/m 2,7 km/h (1 Bft) O 90 0 min 0,025 mm 21 W/m -1,1 C 1,8 C 6,4 km/h (2 Bft)
28.01.2023 15:25 1,8 C 2,8 C 2,8 C 83 % 38 cb 1027,3 hPa 0,0 l/m 2,7 km/h (1 Bft) W-NW 292 5 min 0,025 mm 44 W/m -0,8 C 1,8 C 8,0 km/h (2 Bft)
28.01.2023 14:25 1,9 C 2,8 C 2,8 C 81 % 38 cb 1027,1 hPa 0,0 l/m 2,7 km/h (1 Bft) O 90 0 min 0,025 mm 40 W/m -1,0 C 1,9 C 4,8 km/h (1 Bft)
28.01.2023 13:25 2,0 C 2,8 C 3,3 C 79 % 38 cb 1027,1 hPa 0,0 l/m 2,7 km/h (1 Bft) W-NW 292 0 min 0,025 mm 74 W/m -1,2 C 2,0 C 6,4 km/h (2 Bft)
28.01.2023 12:25 1,9 C 2,2 C 3,3 C 80 % 38 cb 1027,1 hPa 0,0 l/m 2,7 km/h (1 Bft) O 90 0 min 0,025 mm 79 W/m -1,2 C 1,9 C 4,8 km/h (1 Bft)
28.01.2023 11:25 1,8 C 2,2 C 2,8 C 79 % 38 cb 1027,3 hPa 0,0 l/m 2,7 km/h (1 Bft) N 360 0 min 0,051 mm 54 W/m -1,4 C 1,8 C 3,2 km/h (1 Bft)
28.01.2023 10:25 1,5 C 2,2 C 3,9 C 82 % 38 cb 1027,0 hPa 0,0 l/m 1,1 km/h (1 Bft) N-NO 22 0 min 0,025 mm 107 W/m -1,2 C 1,5 C 3,2 km/h (1 Bft)
28.01.2023 09:25 0,9 C 2,2 C 1,7 C 85 % 38 cb 1026,7 hPa 0,0 l/m 1,1 km/h (1 Bft) N-NW 337 0 min 0,000 mm 44 W/m -1,3 C 0,9 C 3,2 km/h (1 Bft)
28.01.2023 08:25 0,3 C 2,2 C 0,6 C 87 % 38 cb 1026,3 hPa 0,0 l/m 2,7 km/h (1 Bft) NW 315 0 min 0,000 mm 11 W/m -1,6 C 0,3 C 4,8 km/h (1 Bft)
28.01.2023 08:00 0,3 C 2,2 C 0,0 C 86 % 38 cb 1026,2 hPa 0,0 l/m 2,7 km/h (1 Bft) NW 315 0 min 0,000 mm 0 W/m -1,8 C 0,3 C 6,4 km/h (2 Bft)
_ Min-Zeit 07:20 08:00 19:55 11:10 08:00 08:00 - 08:10 - - - - - 07:15 07:15 17:00
Minimum _ -0,7 C 2,2 C -2,8 C 78 % 38 cb 1026,2 hPa - 1,1 km/h (1 Bft) - - - - - -3,8 C -0,6 C 0,0 km/h (0 Bft)
_ Max-Zeit 14:55 12:50 10:50 08:15 20:55 22:00 08:00 10:55 - - 14:50 11:00 14:50 15:05 14:55 14:00
Maximum _ 2,4 C 2,8 C 5,0 C 87 % 39 cb 1029,9 hPa 0,0 l/m 4,3 km/h
O (1 Bft)
- - 5 min 0,051 mm 211 W/m -0,4 C 2,3 C 11,3 km/h
W-NW (2 Bft)
Durchschnitt _ 0,8 C 2,6 C 1,0 C 81 % 38 cb 1028,4 hPa #0,0 l/m 2,1 km/h (1 Bft) W-NW - #0 min. #0,000 mm 0 W/m -2,0 C 0,8 C 4,2 km/h (1 Bft)